EW3623 Weather Reports


time (UTC)temp
C
wind
direction
speed
KPH
gust
KPH
rain 1hr
cm
rain 24hr
cm
rain mn
cm
humidity
%
barometer
mb
20260906121816 21 78 6.4 11.3 0.00 0.00 0.00 89 1018.4
20260906121551 21 67 4.8 9.7 0.00 0.00 0.00 89 1017.1
20260906121321 21 62 4.8 9.7 0.00 0.00 0.00 89 1018.4
20260906120832 21 71 6.4 11.3 0.00 0.00 0.00 89 1018.4
20260906120339 21 65 6.4 14.5 0.00 0.00 0.00 89 1018.2
20260906120032 21 72 8.0 14.5 0.00 0.00 0.00 89 1016.8
20260906115820 21 78 8.0 14.5 0.00 0.00 0.00 89 1018.0
20260906115320 21 63 6.4 12.9 0.00 0.00 0.00 89 1018.0
20260906114832 21 54 3.2 12.9 0.00 0.00 0.00 88 1017.9
20260906114552 21 85 1.6 9.7 0.00 0.00 0.00 88 1016.6
20260906114321 21 80 4.8 9.7 0.00 0.00 0.00 89 1017.9
20260906113826 21 57 4.8 8.0 0.00 0.00 0.00 89 1017.9
20260906113331 21 48 3.2 8.0 0.00 0.00 0.00 89 1017.8
20260906113057 21 46 1.6 8.0 0.00 0.00 0.00 89 1016.5
20260906112816 21 46 4.8 8.0 0.00 0.00 0.00 90 1017.7
20260906112324 21 46 4.8 8.0 0.00 0.00 0.00 90 1017.5
20260906111832 21 57 4.8 8.0 0.00 0.00 0.00 90 1017.4
20260906111510 21 44 1.6 6.4 0.00 0.00 0.00 90 1016.2
20260906111341 21 44 1.6 4.8 0.00 0.00 0.00 90 1017.5
20260906110826 21 44 1.6 6.4 0.00 0.00 0.00 90 1017.5
20260906110319 21 46 3.2 6.4 0.00 0.00 0.00 90 1017.5
20260906110001 21 40 0.0 6.4 0.00 0.00 0.00 90 1016.2
20260906105822 21 40 3.2 6.4 0.00 0.00 0.00 90 1017.5
20260906105327 21 51 0.0 0.0 0.00 0.00 0.00 91 1017.3
20260906104817 21 51 0.0 0.0 0.00 0.00 0.00 91 1017.2
20260906104520 21 51 0.0 0.0 0.00 0.00 0.00 90 1015.8
20260906104323 21 52 0.0 0.0 0.00 0.00 0.00 90 1017.1
20260906103829 21 52 0.0 0.0 0.00 0.00 0.00 90 1017.0
20260906103336 21 52 0.0 0.0 0.00 0.00 0.00 90 1017.1
20260906103025 21 52 0.0 0.0 0.00 0.00 0.00 90 1015.8
20260906102823 21 52 0.0 0.0 0.00 0.00 0.00 90 1017.1
20260906102326 21 52 0.0 0.0 0.00 0.00 0.00 89 1017.0
20260906101829 21 52 0.0 3.2 0.00 0.00 0.00 89 1017.0
20260906101537 21 52 0.0 3.2 0.00 0.00 0.00 89 1015.7
20260906101332 21 52 0.0 3.2 0.00 0.00 0.00 89 1017.1
20260906100819 21 52 0.0 6.4 0.00 0.00 0.00 88 1017.0
20260906100352 21 52 0.0 6.4 0.00 0.00 0.00 89 1017.0
20260906100032 21 52 3.2 6.4 0.00 0.00 0.00 89 1015.6
20260906095840 21 50 3.2 4.8 0.00 0.00 0.00 89 1016.9
20260906095354 21 50 0.0 1.6 0.00 0.00 0.00 88 1016.9
20260906094822 21 50 0.0 4.8 0.00 0.00 0.00 88 1016.9
20260906094527 21 50 0.0 4.8 0.00 0.00 0.00 88 1015.5
20260906094329 22 50 0.0 4.8 0.00 0.00 0.00 88 1016.8
20260906093816 22 49 0.0 6.4 0.00 0.00 0.00 88 1016.8
20260906093331 22 50 4.8 6.4 0.00 0.00 0.00 88 1016.8
20260906093049 21 51 3.2 6.4 0.00 0.00 0.00 88 1015.4
20260906092820 22 47 3.2 6.4 0.00 0.00 0.00 88 1016.9
20260906092324 22 37 3.2 6.4 0.00 0.00 0.00 88 1016.9
20260906091833 22 40 4.8 8.0 0.00 0.00 0.00 88 1016.9
20260906091549 21 40 3.2 9.7 0.00 0.00 0.00 88 1015.4
20260906091334 22 46 4.8 9.7 0.00 0.00 0.00 88 1016.8
20260906090827 22 38 3.2 6.4 0.00 0.00 0.00 88 1016.7
20260906090332 22 37 3.2 6.4 0.00 0.00 0.00 88 1016.7
20260906090059 22 38 3.2 6.4 0.00 0.00 0.00 88 1015.4
20260906090001 22 39 3.2 6.4 0.00 0.00 0.00 88 1015.3
20260906085818 22 37 3.2 6.4 0.00 0.00 0.00 88 1016.7
20260906085323 22 30 3.2 8.0 0.00 0.00 0.00 88 1016.7
20260906084829 22 31 3.2 8.0 0.00 0.00 0.00 88 1016.7
20260906084514 22 50 1.6 6.4 0.00 0.00 0.00 88 1015.4
20260906084319 22 51 3.2 6.4 0.00 0.00 0.00 88 1016.7
20260906083836 22 44 1.6 6.4 0.00 0.00 0.00 88 1016.8
20260906083325 22 44 3.2 4.8 0.00 0.00 0.00 87 1016.7
20260906083030 22 44 0.0 4.8 0.00 0.00 0.00 87 1015.3
20260906082830 22 44 1.6 4.8 0.00 0.00 0.00 87 1016.7
20260906082321 22 42 1.6 6.4 0.00 0.00 0.00 87 1016.7
20260906081822 22 42 3.2 8.0 0.00 0.00 0.00 87 1016.7
20260906081544 22 42 4.8 8.0 0.00 0.00 0.00 87 1015.3
20260906081329 22 40 4.8 8.0 0.00 0.00 0.00 87 1016.7
20260906080836 22 51 4.8 8.0 0.00 0.00 0.00 87 1016.9
20260906080323 22 55 3.2 8.0 0.00 0.00 0.00 87 1016.9
20260906080056 22 55 3.2 6.4 0.00 0.00 0.00 87 1015.5
20260906075831 22 56 4.8 9.7 0.00 0.00 0.00 87 1016.9
20260906075337 22 55 4.8 9.7 0.00 0.00 0.00 87 1016.9
20260906074844 22 46 4.8 9.7 0.00 0.00 0.00 87 1016.8
20260906074550 22 24 4.8 9.7 0.00 0.00 0.00 87 1015.5
20260906074316 22 55 6.4 9.7 0.00 0.00 0.00 87 1016.8
20260906073823 22 38 4.8 9.7 0.00 0.00 0.00 87 1016.9
20260906073332 22 57 4.8 9.7 0.00 0.00 0.00 87 1016.9
20260906073057 22 42 4.8 9.7 0.00 0.00 0.00 87 1015.5
20260906072834 22 37 4.8 9.7 0.00 0.00 0.00 87 1016.8
20260906072316 22 55 6.4 9.7 0.00 0.00 0.00 87 1016.9
20260906071817 22 46 4.8 11.3 0.00 0.00 0.00 87 1016.9
20260906071507 22 59 6.4 11.3 0.00 0.00 0.00 87 1015.6
20260906071331 22 57 6.4 11.3 0.00 0.00 0.00 88 1016.9
20260906070825 22 44 4.8 9.7 0.00 0.00 0.00 88 1017.0
20260906070315 22 41 6.4 9.7 0.00 0.00 0.00 88 1017.0
20260906070027 22 17 6.4 9.7 0.00 0.00 0.00 88 1015.6
20260906065820 22 65 6.4 11.3 0.00 0.00 0.00 88 1017.0
20260906065327 22 49 3.2 12.9 0.00 0.00 0.00 88 1017.0
20260906064818 22 38 4.8 14.5 0.00 0.00 0.00 88 1017.0
20260906064545 22 78 8.0 14.5 0.00 0.00 0.00 87 1015.5
20260906064320 22 55 6.4 11.3 0.00 0.00 0.00 87 1016.9
20260906063824 22 58 4.8 11.3 0.00 0.00 0.00 87 1016.9
20260906063331 22 46 6.4 12.9 0.00 0.00 0.00 87 1016.9
20260906063003 22 55 4.8 12.9 0.00 0.00 0.00 87 1015.5
20260906062821 22 68 4.8 12.9 0.00 0.00 0.00 87 1016.9
20260906062333 22 82 9.7 16.1 0.00 0.00 0.00 87 1016.9
20260906061818 22 77 6.4 16.1 0.00 0.00 0.00 86 1016.9
20260906061518 22 69 6.4 14.5 0.00 0.00 0.00 86 1015.5
20260906061353 22 61 6.4 14.5 0.00 0.00 0.00 86 1016.9
20260906060837 22 48 8.0 14.5 0.00 0.00 0.00 86 1016.9
20260906060356 22 45 6.4 14.5 0.00 0.00 0.00 86 1017.0
20260906060026 22 84 8.0 16.1 0.00 0.00 0.00 86 1015.6
20260906055839 23 53 9.7 16.1 0.00 0.00 0.00 86 1016.9
20260906055343 23 42 9.7 16.1 0.00 0.00 0.00 85 1016.9
20260906054849 23 65 6.4 12.9 0.00 0.00 0.00 85 1016.9
20260906054508 22 58 8.0 12.9 0.00 0.00 0.00 85 1015.5
20260906054330 23 21 8.0 12.9 0.00 0.00 0.00 85 1016.9
20260906053902 23 47 8.0 12.9 0.00 0.00 0.00 85 1016.9
20260906053356 23 63 6.4 14.5 0.00 0.00 0.00 85 1016.9
20260906053046 22 21 8.0 14.5 0.00 0.00 0.00 85 1015.4
20260906052824 23 40 6.4 14.5 0.00 0.00 0.00 85 1016.8
20260906052316 23 30 8.0 11.3 0.00 0.00 0.00 86 1016.8
20260906051829 22 59 6.4 11.3 0.00 0.00 0.00 86 1016.8
20260906051508 22 46 6.4 11.3 0.00 0.00 0.00 86 1015.3
20260906051331 22 45 6.4 11.3 0.00 0.00 0.00 86 1016.7
20260906050833 22 49 8.0 16.1 0.00 0.00 0.00 86 1016.6
20260906050318 22 69 9.7 16.1 0.00 0.00 0.00 86 1016.6
20260906050014 22 55 3.2 12.9 0.00 0.00 0.00 86 1015.3
20260906045845 22 79 6.4 12.9 0.00 0.00 0.00 87 1016.7
20260906045339 22 59 6.4 16.1 0.00 0.00 0.00 86 1016.6
20260906044837 22 82 8.0 17.7 0.00 0.00 0.00 86 1016.6
20260906044528 22 54 11.3 17.7 0.00 0.00 0.00 86 1015.0
20260906044322 22 71 9.7 17.7 0.00 0.00 0.00 87 1016.3
20260906043855 22 76 9.7 17.7 0.00 0.00 0.00 87 1016.3
20260906043322 22 66 6.4 16.1 0.00 0.00 0.00 87 1016.3
20260906043029 22 67 9.7 17.7 0.00 0.00 0.00 87 1014.8
20260906042828 22 106 11.3 17.7 0.00 0.00 0.00 87 1016.2
20260906042314 22 63 8.0 17.7 0.00 0.00 0.00 87 1016.0
20260906041817 22 56 9.7 22.5 0.00 0.00 0.00 87 1015.9
20260906041529 22 79 11.3 22.5 0.00 0.00 0.00 87 1014.5
20260906041321 22 57 9.7 22.5 0.00 0.00 0.00 86 1015.9
20260906040830 22 72 12.9 17.7 0.00 0.00 0.00 86 1015.9
20260906040318 22 82 9.7 20.9 0.00 0.00 0.00 86 1015.9
20260906040047 22 60 8.0 20.9 0.00 0.00 0.00 86 1014.5
20260906035822 22 74 9.7 24.1 0.00 0.00 0.00 86 1015.9
20260906035328 22 55 9.7 19.3 0.00 0.00 0.00 86 1015.9
20260906034835 22 46 14.5 22.5 0.00 0.00 0.00 85 1015.9
20260906034604 22 60 12.9 22.5 0.00 0.00 0.00 85 1014.5
20260906034321 22 59 8.0 19.3 0.00 0.00 0.00 85 1015.8
20260906033832 22 73 12.9 19.3 0.00 0.00 0.00 85 1015.8
20260906033328 22 36 12.9 20.9 0.00 0.00 0.00 85 1015.7
20260906033016 22 71 9.7 22.5 0.00 0.00 0.00 85 1014.3
20260906032816 22 81 11.3 22.5 0.00 0.00 0.00 85 1015.7
20260906032346 22 85 14.5 22.5 0.00 0.00 0.00 85 1015.8
20260906031835 22 42 8.0 24.1 0.00 0.00 0.00 85 1015.9
20260906031527 22 78 11.3 24.1 0.00 0.00 0.00 85 1014.5
20260906031322 22 60 14.5 24.1 0.00 0.00 0.00 85 1015.9
20260906030829 22 66 14.5 25.7 0.00 0.00 0.00 85 1015.9
20260906030336 22 64 8.0 16.1 0.00 0.00 0.00 85 1015.9
20260906030021 22 76 8.0 16.1 0.00 0.00 0.00 85 1014.4
20260906025821 22 67 9.7 19.3 0.00 0.00 0.00 85 1015.9
20260906025332 22 82 9.7 19.3 0.00 0.00 0.00 85 1015.9
20260906024833 22 53 9.7 19.3 0.00 0.00 0.00 85 1015.9
20260906024540 22 50 6.4 22.5 0.00 0.00 0.00 85 1014.4
20260906024315 22 74 8.0 22.5 0.00 0.00 0.00 84 1015.9
20260906023828 22 66 9.7 16.1 0.00 0.00 0.00 84 1015.8
20260906023339 22 78 11.3 19.3 0.00 0.00 0.00 84 1015.8
20260906023048 22 78 11.3 20.9 0.00 0.00 0.00 84 1014.3
20260906022855 22 52 11.3 25.7 0.00 0.00 0.00 84 1015.8
20260906022320 22 49 12.9 25.7 0.00 0.00 0.00 84 1015.8
20260906021828 22 96 12.9 22.5 0.00 0.00 0.00 84 1015.7
20260906021539 22 63 14.5 22.5 0.00 0.00 0.00 84 1014.2
20260906021335 22 59 14.5 24.1 0.00 0.00 0.00 84 1015.7
20260906020834 22 65 12.9 24.1 0.00 0.00 0.00 84 1015.8
20260906020338 22 60 9.7 20.9 0.00 0.00 0.00 84 1015.8
20260906020006 22 86 12.9 20.9 0.00 0.00 0.00 84 1014.3
20260906015837 22 65 12.9 20.9 0.00 0.00 0.00 84 1015.8
20260906015344 22 52 12.9 20.9 0.00 0.00 0.00 84 1015.9
20260906014851 22 36 9.7 24.1 0.00 0.00 0.00 84 1016.0
20260906014504 22 19 11.3 24.1 0.00 0.00 0.00 84 1014.5
20260906014335 22 23 9.7 24.1 0.00 0.00 0.00 84 1016.0
20260906013833 23 81 6.4 16.1 0.00 0.00 0.00 84 1015.9
20260906013338 23 30 8.0 24.1 0.00 0.00 0.00 83 1015.9
20260906013012 22 44 11.3 24.1 0.00 0.00 0.00 84 1014.3
20260906012846 23 48 12.9 24.1 0.00 0.00 0.00 84 1015.9
20260906012331 22 39 9.7 17.7 0.00 0.00 0.00 84 1015.9
20260906011840 22 22 11.3 24.1 0.00 0.00 0.00 85 1015.9
20260906011540 22 59 8.0 24.1 0.00 0.00 0.00 85 1014.4
20260906011354 22 66 12.9 27.4 0.00 0.00 0.00 85 1015.9
20260906010818 22 71 11.3 27.4 0.00 0.00 0.00 85 1015.9
20260906010328 22 54 14.5 22.5 0.00 0.00 0.00 84 1015.8
20260906010036 22 98 11.3 19.3 0.00 0.00 0.00 84 1014.2
20260906005830 23 55 11.3 19.3 0.00 0.00 0.00 85 1015.7
20260906005316 22 17 11.3 19.3 0.00 0.00 0.00 85 1015.6
20260906004819 22 53 11.3 29.0 0.00 0.00 0.00 85 1015.5
20260906004608 22 36 9.7 29.0 0.00 0.00 0.00 85 1013.9
20260906004353 22 48 14.5 29.0 0.00 0.00 0.00 85 1015.4
20260906003834 22 61 11.3 25.7 0.00 0.00 0.00 85 1015.3
20260906003321 22 63 8.0 29.0 0.00 0.00 0.00 85 1015.3
20260906003036 22 67 9.7 35.4 0.00 0.00 0.00 84 1013.7
20260906002826 22 100 9.7 35.4 0.00 0.00 0.00 85 1015.3
20260906002335 22 81 16.1 27.4 0.00 0.00 0.00 85 1015.3
20260906001825 22 55 11.3 29.0 0.00 0.00 0.00 84 1015.2
20260906001603 22 34 14.5 29.0 0.00 0.00 0.00 84 1013.6
20260906001334 23 36 17.7 29.0 0.00 0.00 0.00 83 1015.2
20260906000820 23 30 16.1 27.4 0.00 0.00 0.00 84 1015.2
20260906000335 22 25 16.1 29.0 0.00 0.00 0.00 84 1015.2
20260906000008 22 92 14.5 29.0 0.00 0.00 0.00 84 1013.7
20260905235839 22 63 16.1 29.0 0.00 0.00 0.00 84 1015.3
20260905235347 22 64 16.1 25.7 0.00 0.00 0.00 84 1015.2
20260905234837 23 63 12.9 27.4 0.00 0.00 0.00 84 1015.2
20260905234544 23 49 12.9 27.4 0.00 0.00 0.00 83 1013.6
20260905234321 23 59 14.5 24.1 0.00 0.00 0.00 83 1015.2
20260905233829 23 349 14.5 24.1 0.00 0.00 0.00 83 1015.2
20260905233328 23 345 12.9 24.1 0.00 0.00 0.00 82 1015.2
20260905233058 23 58 12.9 24.1 0.00 0.00 0.00 82 1013.5
20260905232815 24 44 16.1 24.1 0.00 0.00 0.00 82 1015.1
20260905232325 24 75 12.9 24.1 0.00 0.00 0.00 81 1015.0
20260905231815 24 59 11.3 30.6 0.00 0.00 0.00 81 1014.9
20260905231522 24 22 12.9 30.6 0.00 0.00 0.00 80 1013.3
20260905231320 25 57 16.1 30.6 0.00 0.00 0.00 79 1014.9
20260905230824 25 39 14.5 25.7 0.00 0.00 0.00 79 1014.8
20260905230332 25 39 12.9 22.5 0.00 0.00 0.00 80 1014.7
20260905230021 25 52 14.5 22.5 0.00 0.00 0.00 79 1013.1
20260905225821 25 69 14.5 27.4 0.00 0.00 0.00 78 1014.7
20260905225331 25 46 12.9 30.6 0.00 0.00 0.00 78 1014.7
20260905224825 25 58 14.5 30.6 0.00 0.00 0.00 77 1014.7
20260905224538 25 61 16.1 29.0 0.00 0.00 0.00 76 1013.0
20260905224335 26 46 16.1 24.1 0.00 0.00 0.00 76 1014.6
20260905223823 26 53 14.5 29.0 0.00 0.00 0.00 76 1014.5
20260905223332 26 82 16.1 29.0 0.00 0.00 0.00 75 1014.4
20260905223006 26 65 14.5 27.4 0.00 0.00 0.00 74 1012.8
20260905222826 26 62 17.7 27.4 0.00 0.00 0.00 74 1014.3
20260905222316 26 49 12.9 27.4 0.00 0.00 0.00 74 1014.4
20260905221853 26 34 11.3 22.5 0.00 0.00 0.00 73 1014.5
20260905221600 26 42 11.3 22.5 0.00 0.00 0.00 73 1012.9
20260905221502 26 45 11.3 22.5 0.00 0.00 0.00 73 1013.0
20260905221344 26 60 14.5 22.5 0.00 0.00 0.00 74 1014.5
20260905220826 26 63 12.9 22.5 0.00 0.00 0.00 72 1014.6
20260905220331 27 42 14.5 25.7 0.00 0.00 0.00 71 1014.5
20260905220048 27 45 11.3 25.7 0.00 0.00 0.00 72 1012.8
20260905215815 27 36 14.5 25.7 0.00 0.00 0.00 72 1014.4
20260905215323 27 57 6.4 16.1 0.00 0.00 0.00 71 1014.4
20260905214832 27 9 6.4 22.5 0.00 0.00 0.00 70 1014.4
20260905214510 27 84 6.4 22.5 0.00 0.00 0.00 70 1012.9
20260905214337 27 118 14.5 22.5 0.00 0.00 0.00 70 1014.5
20260905213820 28 360 12.9 20.9 0.00 0.00 0.00 69 1014.4
20260905213332 27 28 9.7 17.7 0.00 0.00 0.00 69 1014.4
20260905213056 27 45 4.8 16.1 0.00 0.00 0.00 69 1012.9
20260905212822 28 21 8.0 16.1 0.00 0.00 0.00 69 1014.4
20260905212338 27 330 8.0 16.1 0.00 0.00 0.00 70 1014.3
20260905211830 27 17 6.4 16.1 0.00 0.00 0.00 70 1014.4
20260905211606 27 44 8.0 16.1 0.00 0.00 0.00 70 1012.7
20260905211504 27 66 8.0 16.1 0.00 0.00 0.00 70 1012.7
20260905211346 27 30 9.7 16.1 0.00 0.00 0.00 71 1014.3
20260905210835 27 360 9.7 16.1 0.00 0.00 0.00 72 1014.4
20260905210322 27 84 6.4 12.9 0.00 0.00 0.00 73 1014.4
20260905210117 27 41 4.8 12.9 0.00 0.00 0.00 73 1012.8
20260905205828 27 57 9.7 11.3 0.00 0.00 0.00 74 1014.5
20260905205341 26 39 6.4 16.1 0.00 0.00 0.00 76 1014.5
20260905204832 26 10 8.0 16.1 0.00 0.00 0.00 75 1014.7
20260905204558 26 329 8.0 16.1 0.00 0.00 0.00 75 1013.1
20260905204324 26 343 9.7 20.9 0.00 0.00 0.00 75 1014.7
20260905203829 26 67 9.7 20.9 0.00 0.00 0.00 74 1014.6
20260905203324 26 35 9.7 16.1 0.00 0.00 0.00 74 1014.6
20260905203016 26 338 8.0 17.7 0.00 0.00 0.00 74 1012.9
20260905202827 27 53 8.0 17.7 0.00 0.00 0.00 74 1014.5
20260905202314 27 38 9.7 17.7 0.00 0.00 0.00 74 1014.5
20260905201825 26 360 9.7 17.7 0.00 0.00 0.00 74 1014.5
20260905201532 26 32 11.3 22.5 0.00 0.00 0.00 74 1012.9
20260905201318 26 40 9.7 22.5 0.00 0.00 0.00 74 1014.6
20260905200853 26 38 12.9 20.9 0.00 0.00 0.00 74 1014.6
20260905200342 26 336 11.3 22.5 0.00 0.00 0.00 75 1014.7
20260905200032 26 360 12.9 22.5 0.00 0.00 0.00 75 1013.1
20260905195842 26 52 16.1 22.5 0.00 0.00 0.00 75 1014.7
20260905195347 26 27 11.3 19.3 0.00 0.00 0.00 75 1014.7
20260905194835 26 360 9.7 19.3 0.00 0.00 0.00 74 1014.6
20260905194513 26 15 11.3 19.3 0.00 0.00 0.00 75 1013.0
20260905194319 27 38 12.9 19.3 0.00 0.00 0.00 75 1014.6
20260905193830 27 44 9.7 24.1 0.00 0.00 0.00 74 1014.6
20260905193321 27 40 12.9 24.1 0.00 0.00 0.00 74 1014.7
20260905193038 27 34 9.7 24.1 0.00 0.00 0.00 74 1013.1
20260905192816 27 14 8.0 19.3 0.00 0.00 0.00 74 1014.7
20260905192329 27 45 12.9 19.3 0.00 0.00 0.00 73 1014.7
20260905191821 27 64 9.7 24.1 0.00 0.00 0.00 74 1014.7
20260905191557 27 52 9.7 24.1 0.00 0.00 0.00 74 1013.0
20260905191327 27 9 11.3 24.1 0.00 0.00 0.00 74 1014.7
20260905190835 27 11 12.9 20.9 0.00 0.00 0.00 73 1014.7
20260905190327 27 51 11.3 22.5 0.00 0.00 0.00 73 1014.8
20260905190015 27 28 11.3 22.5 0.00 0.00 0.00 73 1013.2
20260905185830 27 42 11.3 22.5 0.00 0.00 0.00 73 1014.8
20260905185318 27 42 4.8 16.1 0.00 0.00 0.00 73 1014.7
20260905184820 27 11 6.4 16.1 0.00 0.00 0.00 73 1014.7
20260905184551 27 24 8.0 19.3 0.00 0.00 0.00 72 1013.0
20260905184316 27 62 9.7 19.3 0.00 0.00 0.00 73 1014.7
20260905183819 27 63 8.0 19.3 0.00 0.00 0.00 73 1014.8
20260905183323 27 46 11.3 20.9 0.00 0.00 0.00 72 1014.9
20260905183053 27 25 11.3 20.9 0.00 0.00 0.00 71 1013.2
20260905182841 28 49 11.3 22.5 0.00 0.00 0.00 72 1014.9
20260905182329 28 38 9.7 19.3 0.00 0.00 0.00 72 1014.9
20260905181824 28 40 12.9 19.3 0.00 0.00 0.00 72 1014.8
20260905181559 27 37 11.3 22.5 0.00 0.00 0.00 72 1013.1
20260905181329 27 94 11.3 22.5 0.00 0.00 0.00 72 1014.8
20260905180835 28 63 16.1 22.5 0.00 0.00 0.00 72 1014.7
20260905180324 28 52 14.5 17.7 0.00 0.00 0.00 71 1014.7
20260905180016 27 17 11.3 19.3 0.00 0.00 0.00 71 1013.0
20260905175820 28 56 11.3 19.3 0.00 0.00 0.00 71 1014.6
20260905175321 28 64 11.3 20.9 0.00 0.00 0.00 71 1014.6
20260905174823 28 40 11.3 20.9 0.00 0.00 0.00 71 1014.7
20260905174526 28 36 9.7 17.7 0.00 0.00 0.00 71 1013.0
20260905174338 28 38 8.0 17.7 0.00 0.00 0.00 72 1014.7
20260905173851 28 40 8.0 16.1 0.00 0.00 0.00 72 1014.8
20260905173342 28 46 11.3 19.3 0.00 0.00 0.00 72 1014.7
20260905173050 28 21 11.3 19.3 0.00 0.00 0.00 72 1013.0
20260905172852 28 33 12.9 19.3 0.00 0.00 0.00 72 1014.6
20260905172318 28 360 8.0 19.3 0.00 0.00 0.00 73 1014.7
20260905171826 28 44 11.3 16.1 0.00 0.00 0.00 73 1014.6
20260905171542 27 54 8.0 16.1 0.00 0.00 0.00 73 1013.0
20260905171324 28 88 8.0 16.1 0.00 0.00 0.00 73 1014.7
20260905170831 28 27 11.3 17.7 0.00 0.00 0.00 72 1014.7
20260905170321 28 11 9.7 17.7 0.00 0.00 0.00 72 1014.6
20260905170055 28 40 8.0 17.7 0.00 0.00 0.00 73 1013.0
20260905165823 28 23 12.9 16.1 0.00 0.00 0.00 73 1014.8
20260905165330 28 22 6.4 16.1 0.00 0.00 0.00 73 1014.8
20260905164819 28 44 6.4 16.1 0.00 0.00 0.00 73 1014.8
20260905164515 28 82 8.0 16.1 0.00 0.00 0.00 72 1013.2
20260905164331 28 34 11.3 16.1 0.00 0.00 0.00 71 1014.9
20260905163834 29 40 11.3 17.7 0.00 0.00 0.00 70 1014.8
20260905163323 28 45 9.7 20.9 0.00 0.00 0.00 72 1014.7
20260905163027 28 317 9.7 20.9 0.00 0.00 0.00 73 1013.1
20260905162827 28 57 9.7 16.1 0.00 0.00 0.00 72 1014.7
20260905162328 28 9 6.4 16.1 0.00 0.00 0.00 72 1014.8
20260905161818 28 55 8.0 17.7 0.00 0.00 0.00 72 1014.8
20260905161538 28 31 8.0 17.7 0.00 0.00 0.00 72 1013.1
20260905161327 28 57 12.9 17.7 0.00 0.00 0.00 72 1014.8
20260905160836 28 37 11.3 16.1 0.00 0.00 0.00 72 1014.7
20260905160342 28 69 11.3 17.7 0.00 0.00 0.00 72 1014.7
20260905160023 28 18 8.0 16.1 0.00 0.00 0.00 73 1013.0
20260905155824 28 53 9.7 16.1 0.00 0.00 0.00 73 1014.7
20260905155319 28 46 11.3 17.7 0.00 0.00 0.00 73 1014.6
20260905154822 28 40 9.7 17.7 0.00 0.00 0.00 74 1014.6
20260905154546 27 52 9.7 17.7 0.00 0.00 0.00 73 1012.9
20260905154404 27 31 11.3 17.7 0.00 0.00 0.00 74 1014.6
20260905153959 27 43 9.7 20.9 0.00 0.00 0.00 74 1014.6
20260905153322 27 51 8.0 20.9 0.00 0.00 0.00 76 1014.5
20260905153006 27 38 11.3 19.3 0.00 0.00 0.00 77 1012.8
20260905152826 27 53 11.3 19.3 0.00 0.00 0.00 76 1014.5
20260905152333 27 47 9.7 19.3 0.00 0.00 0.00 76 1014.4
20260905151819 27 55 9.7 17.7 0.00 0.00 0.00 77 1014.4
20260905151521 26 40 6.4 17.7 0.00 0.00 0.00 77 1012.7
20260905151330 27 62 8.0 17.7 0.00 0.00 0.00 77 1014.3
20260905150817 27 47 11.3 17.7 0.00 0.00 0.00 76 1014.4
20260905150356 27 51 9.7 17.7 0.00 0.00 0.00 77 1014.3
20260905150024 27 39 9.7 17.7 0.00 0.00 0.00 77 1012.6
20260905145827 27 36 9.7 17.7 0.00 0.00 0.00 77 1014.3
20260905145314 27 40 9.7 17.7 0.00 0.00 0.00 77 1014.3
20260905144851 27 311 9.7 20.9 0.00 0.00 0.00 77 1014.3
20260905144516 27 36 11.3 20.9 0.00 0.00 0.00 77 1012.6
20260905144333 27 51 9.7 16.1 0.00 0.00 0.00 78 1014.2
20260905143820 27 45 9.7 20.9 0.00 0.00 0.00 79 1014.2
20260905143355 26 42 11.3 20.9 0.00 0.00 0.00 80 1014.2
20260905143006 26 51 8.0 19.3 0.00 0.00 0.00 80 1012.4
20260905142837 26 58 11.3 19.3 0.00 0.00 0.00 80 1014.2
20260905142344 26 45 12.9 19.3 0.00 0.00 0.00 81 1014.2
20260905141845 26 61 11.3 16.1 0.00 0.00 0.00 82 1014.1
20260905141554 26 35 11.3 19.3 0.00 0.00 0.00 82 1012.4
20260905141330 26 52 11.3 19.3 0.00 0.00 0.00 83 1014.0
20260905140839 26 51 11.3 19.3 0.00 0.00 0.00 83 1014.0
20260905140323 25 55 11.3 19.3 0.00 0.00 0.00 85 1013.9
20260905140027 25 34 9.7 19.3 0.00 0.00 0.00 86 1012.1
20260905135824 25 64 8.0 16.1 0.00 0.00 0.00 86 1013.9
20260905135333 25 30 8.0 16.1 0.00 0.00 0.00 88 1013.9
20260905134841 25 360 8.0 17.7 0.00 0.00 0.00 88 1013.9
20260905134526 24 10 8.0 17.7 0.00 0.00 0.00 89 1012.2
20260905134328 24 32 9.7 17.7 0.00 0.00 0.00 89 1013.9
20260905133829 24 57 12.9 20.9 0.00 0.00 0.00 88 1014.1
20260905133344 24 38 11.3 16.1 0.00 0.00 0.00 89 1014.2
20260905133010 24 44 8.0 14.5 0.00 0.00 0.00 88 1012.6
20260905132830 24 24 8.0 14.5 0.00 0.00 0.00 88 1014.3
20260905132316 24 347 6.4 14.5 0.00 0.00 0.00 89 1014.4
20260905131821 24 44 6.4 16.1 0.00 0.00 0.00 89 1014.2
20260905131519 23 43 8.0 16.1 0.00 0.00 0.00 89 1012.4
20260905131324 24 49 9.7 14.5 0.00 0.00 0.00 89 1014.0
20260905130831 24 56 8.0 12.9 0.00 0.00 0.00 88 1013.9
20260905130320 24 30 8.0 12.9 0.00 0.00 0.00 89 1013.8
20260905130030 24 25 6.4 12.9 0.00 0.00 0.00 90 1012.0
20260905125828 24 59 6.4 12.9 0.00 0.00 0.00 90 1013.6
20260905125333 24 47 6.4 12.9 0.00 0.00 0.00 89 1013.6
20260905124839 24 43 6.4 12.9 0.00 0.00 0.00 89 1013.6
20260905124523 23 9 6.4 12.9 0.00 0.00 0.00 89 1011.9
20260905124329 24 42 6.4 12.9 0.00 0.00 0.00 88 1013.5
20260905123820 24 35 8.0 16.1 0.00 0.00 0.00 89 1013.4
20260905123326 24 34 6.4 16.1 0.00 0.00 0.00 89 1013.3
20260905123102 24 28 9.7 16.1 0.00 0.00 0.00 89 1011.5
20260905122818 24 19 6.4 12.9 0.00 0.00 0.00 88 1013.2
20260905122351 25 42 8.0 12.9 0.00 0.00 0.00 89 1013.3